Weather in Santa Ana de Coro

Venezuela     11°24′11″N   69°40′43″W
temp.,
°C
wind,
m/s
gust,
m/s
humid.,
%
clouds,
%
prec.,
mm/h
press.,
hPa
HPBL,
m
23 april, fri
fri2323:00+25e1013835 0.0 1013790
02:00+25e812845 0.1 1012740
05:00+25e811823 0.0 1011627
08:00+26e811795 0.0 1012718
11:00+29ene910655 0.0 1012671
14:00+28ene15147410 0.0 1009732
17:00+27ene14157955 0.0 1008671
20:00+26e1114845 0.0 1011771
24 april, sat
sat2423:00+26e10138273 0.1 1012787
02:00+26e9128395 0.1 1011716
05:00+26e8128275 0.0 1011604
08:00+26e9128046 0.0 1013784
11:00+29ene10126912 0.0 1013770
14:00+28ene13127232 0.0 1010921
17:00+28ene13147633 0.0 1009696
20:00+26e1216825 0.0 1010722
25 april, sun
sun2523:00+26e913838 0.0 1012782
02:00+26e8128359 0.1 1011694
05:00+25e8128322 0.0 1011630
08:00+26e911796 0.1 1013733
11:00+28ene11127120 0.0 1012836
14:00+28ene13137342 0.0 1010854
17:00+27ene1313755 0.0 1009782
20:00+26e1113825 0.0 1011657
26 april, mon
mon2623:00+26e9128392 0.0 1012766
02:00+25e8118336 0.0 1011717
05:00+25e8118361 0.0 1010649
08:00+26e811778 0.1 1011817
11:00+29ene10116671 0.0 1012781
14:00+28ene14136911 0.0 1008913
17:00+27ene13137452 0.0 1008806
20:00+26e1113805 0.0 1010713
27 april, tue
tue2723:00+26e812825 0.0 1011743
02:00+25e710835 0.0 1010569
05:00+25e71085100 0.0 1010551
08:00+26e7107896 0.1 1011755
11:00+28ene10107179 0.0 1011834
14:00+27ene121273100 0.0 1008775
17:00+27ene111277100 0.0 1007736
20:00+26ene91283100 0.0 1009660